Location: Claremont
(33.9858°S, 18.4575°E)
Time: 04:07:43
(UTC+00:00)

Cosmos 2263 Rocket - Pass Details

Date: 03 March 2021
Orbit: 825 x 847 km, 71.0° (Epoch: 10 April)

Event Time Altitude Azimuth Distance (km) Brightness Sun altitude
Rises 18:10:19 0° 4° (N) 3,362 5.1 -11.1°
Reaches altitude 10° 18:12:55 10° 13° (NNE) 2,440 4.3 -11.6°
Maximum altitude 18:17:55 34° 77° (ENE) 1,355 2.7 -12.6°
Drops below altitude 10° 18:23:00 10° 140° (SE) 2,482 4.4 -13.6°
Sets 18:25:40 0° 148° (SSE) 3,427 5.2 -14.1°
